When you browse on this site, cookies collect data to enhance your experience and personalize the content and advertising you see.
Visit our Privacy Policy to learn more. By continuing to use the site, you agree to this use of cookies and data.
  • In Sweden
  • List of Countries
  • For 7 days
  • Water Temperature
  • Satellite Maps
  • Weather Map
  • Weather Widgets
  • user-avatar
    Login

    Hourly Weather San Pedro Sula

    Today, 21 November, Wednesday

    Time Temperature Precipitation Wind Pressure Humidity
    00:00 +24°C° 0.3 mm 1 mps 748 mmHg 98%
    01:00 +24°C° 0.4 mm 1 mps 747 mmHg 98%
    02:00 +24°C° 0.4 mm 1 mps 747 mmHg 98%
    03:00 +24°C° 0.4 mm 1 mps 747 mmHg 98%
    04:00 +24°C° 0.4 mm 1 mps 747 mmHg 98%
    05:00 +24°C° 0.4 mm 1 mps 747 mmHg 98%
    06:00 +24°C° 0.4 mm 1 mps 747 mmHg 97%
    07:00 +25°C° 0.3 mm 1 mps 748 mmHg 93%
    08:00 +26°C° 0.3 mm 1 mps 748 mmHg 88%
    09:00 +27°C° 0.3 mm 1 mps 749 mmHg 84%
    10:00 +28°C° 0.2 mm 1 mps 748 mmHg 78%
    11:00 +30°C° 0.2 mm 2 mps 748 mmHg 72%
    12:00 +31°C° 0.2 mm 2 mps 748 mmHg 67%
    13:00 +30°C° 0.3 mm 2 mps 747 mmHg 68%
    14:00 +30°C° 0.3 mm 2 mps 746 mmHg 70%
    15:00 +29°C° 0.3 mm 2 mps 746 mmHg 72%
    16:00 +28°C° 0.3 mm 2 mps 746 mmHg 79%
    17:00 +26°C° 0.3 mm 2 mps 746 mmHg 87%
    18:00 +25°C° 0.3 mm 1 mps 747 mmHg 94%
    19:00 +25°C° 0.2 mm 1 mps 747 mmHg 95%
    20:00 +24°C° 0.2 mm 1 mps 748 mmHg 96%
    21:00 +24°C° 0.2 mm 1 mps 749 mmHg 97%
    22:00 +24°C° 0.2 mm 1 mps 748 mmHg 97%
    23:00 +24°C° 0.2 mm 1 mps 748 mmHg 97%

    Tomorrow, 22 November, Thursday

    Time Temperature Precipitation Wind Pressure Humidity
    00:00 +24°C° 0.2 mm 1 mps 748 mmHg 98%
    01:00 +24°C° 0.2 mm 1 mps 748 mmHg 97%
    02:00 +22°C° 0.2 mm 0 mps 748 mmHg 97%
    03:00 +22°C° 0.2 mm 0 mps 747 mmHg 97%
    04:00 +22°C° 0.1 mm 0 mps 747 mmHg 97%
    05:00 +23°C° 0.1 mm 1 mps 747 mmHg 97%
    06:00 +23°C° 0.1 mm 1 mps 747 mmHg 97%
    07:00 +25°C° 0.1 mm 1 mps 748 mmHg 90%
    08:00 +27°C° 0.1 mm 1 mps 748 mmHg 82%
    09:00 +28°C° 0.1 mm 1 mps 749 mmHg 75%
    10:00 +29°C° 0.1 mm 1 mps 748 mmHg 70%
    11:00 +30°C° 0.1 mm 2 mps 748 mmHg 65%
    12:00 +31°C° 0.1 mm 2 mps 747 mmHg 59%
    13:00 +31°C° 0 mm 2 mps 746 mmHg 61%
    14:00 +31°C° 0 mm 2 mps 746 mmHg 63%
    15:00 +30°C° 0 mm 2 mps 745 mmHg 64%
    16:00 +29°C° 0.2 mm 2 mps 745 mmHg 73%
    17:00 +27°C° 0.2 mm 2 mps 746 mmHg 83%
    18:00 +25°C° 0.2 mm 1 mps 746 mmHg 92%
    19:00 +25°C° 0.1 mm 1 mps 747 mmHg 94%
    20:00 +24°C° 0.1 mm 1 mps 747 mmHg 95%
    21:00 +24°C° 0.1 mm 1 mps 748 mmHg 97%
    22:00 +24°C° 0.3 mm 1 mps 748 mmHg 97%
    23:00 +24°C° 0.3 mm 1 mps 747 mmHg 97%

    Day after tomorrow, 23 November, Friday

    Time Temperature Precipitation Wind Pressure Humidity
    00:00 +24°C° 0.3 mm 1 mps 747 mmHg 97%
    01:00 +23°C° 0.1 mm 1 mps 747 mmHg 97%
    02:00 +23°C° 0.1 mm 1 mps 746 mmHg 98%
    03:00 +23°C° 0.1 mm 1 mps 745 mmHg 98%
    04:00 +23°C° 0 mm 1 mps 746 mmHg 98%
    05:00 +23°C° 0 mm 1 mps 746 mmHg 98%
    06:00 +23°C° 0 mm 1 mps 746 mmHg 98%
    07:00 +25°C° 0 mm 1 mps 746 mmHg 89%
    08:00 +27°C° 0 mm 1 mps 747 mmHg 80%
    09:00 +29°C° 0 mm 1 mps 747 mmHg 71%
    10:00 +30°C° 0 mm 1 mps 747 mmHg 66%
    11:00 +31°C° 0 mm 1 mps 746 mmHg 61%
    12:00 +32°C° 0 mm 2 mps 745 mmHg 56%
    13:00 +32°C° 0 mm 2 mps 744 mmHg 58%
    14:00 +31°C° 0 mm 2 mps 744 mmHg 60%
    15:00 +31°C° 0 mm 2 mps 743 mmHg 62%
    16:00 +29°C° 0 mm 2 mps 743 mmHg 70%
    17:00 +27°C° 0 mm 2 mps 744 mmHg 79%
    18:00 +25°C° 0 mm 1 mps 744 mmHg 88%
    19:00 +25°C° 0 mm 1 mps 745 mmHg 91%
    20:00 +25°C° 0 mm 1 mps 745 mmHg 93%
    21:00 +24°C° 0 mm 1 mps 746 mmHg 96%
    22:00 +24°C° 0 mm 1 mps 746 mmHg 96%
    23:00 +24°C° 0 mm 1 mps 745 mmHg 97%

    24 November, Saturday

    Time Temperature Precipitation Wind Pressure Humidity
    00:00 +24°C° 0 mm 1 mps 745 mmHg 97%
    01:00 +23°C° 0 mm 1 mps 745 mmHg 97%
    02:00 +23°C° 0 mm 1 mps 744 mmHg 97%
    03:00 +23°C° 0 mm 1 mps 744 mmHg 98%
    04:00 +23°C° 0 mm 1 mps 744 mmHg 97%
    05:00 +23°C° 0 mm 1 mps 744 mmHg 97%
    06:00 +23°C° 0 mm 1 mps 745 mmHg 97%
    07:00 +25°C° 0 mm 1 mps 745 mmHg 86%
    08:00 +28°C° 0 mm 1 mps 745 mmHg 76%
    09:00 +28°C° 0 mm 0 mps 746 mmHg 65%
    10:00 +32°C° 0 mm 1 mps 745 mmHg 58%
    11:00 +33°C° 0 mm 1 mps 744 mmHg 51%
    12:00 +35°C° 0 mm 1 mps 744 mmHg 44%
    13:00 +35°C° 0 mm 2 mps 743 mmHg 47%
    14:00 +35°C° 0 mm 2 mps 742 mmHg 49%
    15:00 +34°C° 0 mm 3 mps 742 mmHg 52%
    16:00 +31°C° 0 mm 2 mps 742 mmHg 63%
    17:00 +28°C° 0 mm 2 mps 743 mmHg 74%
    18:00 +26°C° 0 mm 2 mps 743 mmHg 85%
    19:00 +25°C° 0 mm 2 mps 744 mmHg 88%
    20:00 +25°C° 0 mm 2 mps 744 mmHg 91%
    21:00 +24°C° 0 mm 1 mps 745 mmHg 94%
    22:00 +24°C° 0 mm 1 mps 745 mmHg 94%
    23:00 +24°C° 0 mm 1 mps 744 mmHg 94%

    25 November, Sunday

    Time Temperature Precipitation Wind Pressure Humidity
    00:00 +23°C° 0 mm 1 mps 744 mmHg 94%
    01:00 +23°C° 0 mm 1 mps 744 mmHg 94%
    02:00 +23°C° 0 mm 1 mps 744 mmHg 94%
    03:00 +23°C° 0 mm 1 mps 743 mmHg 94%
    04:00 +23°C° 0 mm 1 mps 744 mmHg 93%
    05:00 +23°C° 0 mm 1 mps 744 mmHg 93%
    06:00 +23°C° 0 mm 1 mps 744 mmHg 93%
    07:00 +25°C° 0 mm 1 mps 745 mmHg 81%
    08:00 +28°C° 0 mm 1 mps 745 mmHg 69%
    09:00 +31°C° 0 mm 1 mps 745 mmHg 58%
    10:00 +33°C° 0 mm 1 mps 745 mmHg 52%
    11:00 +35°C° 0 mm 1 mps 744 mmHg 46%
    12:00 +37°C° 0 mm 1 mps 743 mmHg 40%
    13:00 +36°C° 0 mm 1 mps 743 mmHg 42%
    14:00 +36°C° 0 mm 2 mps 742 mmHg 44%
    15:00 +36°C° 0 mm 2 mps 741 mmHg 46%
    16:00 +32°C° 0 mm 2 mps 742 mmHg 58%
    17:00 +30°C° 0 mm 2 mps 742 mmHg 71%
    18:00 +27°C° 0 mm 2 mps 743 mmHg 83%
    19:00 +26°C° 0 mm 2 mps 743 mmHg 87%
    20:00 +26°C° 0 mm 1 mps 744 mmHg 91%
    21:00 +25°C° 0 mm 1 mps 745 mmHg 96%
    22:00 +25°C° 0 mm 1 mps 745 mmHg 95%
    23:00 +25°C° 0 mm 1 mps 744 mmHg 95%

    26 November, Monday

    Time Temperature Precipitation Wind Pressure Humidity
    00:00 +25°C° 0 mm 1 mps 744 mmHg 94%
    01:00 +25°C° 0 mm 1 mps 744 mmHg 94%
    02:00 +24°C° 0 mm 1 mps 744 mmHg 93%
    03:00 +24°C° 0 mm 1 mps 744 mmHg 93%
    04:00 +24°C° 0.2 mm 1 mps 745 mmHg 93%
    05:00 +24°C° 0.2 mm 1 mps 745 mmHg 92%
    06:00 +24°C° 0.2 mm 1 mps 746 mmHg 92%
    07:00 +26°C° 0.2 mm 1 mps 746 mmHg 83%
    08:00 +29°C° 0.2 mm 1 mps 747 mmHg 74%
    09:00 +31°C° 0.2 mm 1 mps 747 mmHg 65%
    10:00 +32°C° 0.1 mm 1 mps 746 mmHg 62%
    11:00 +33°C° 0.1 mm 1 mps 746 mmHg 59%
    12:00 +35°C° 0.1 mm 2 mps 745 mmHg 56%
    13:00 +34°C° 0.2 mm 2 mps 744 mmHg 57%
    14:00 +34°C° 0.2 mm 2 mps 744 mmHg 59%
    15:00 +34°C° 0.2 mm 2 mps 743 mmHg 60%
    16:00 +31°C° 0.3 mm 2 mps 744 mmHg 69%
    17:00 +29°C° 0.3 mm 2 mps 744 mmHg 78%
    18:00 +27°C° 0.3 mm 1 mps 745 mmHg 87%
    19:00 +26°C° 0.2 mm 1 mps 745 mmHg 91%
    20:00 +26°C° 0.2 mm 1 mps 746 mmHg 94%
    21:00 +25°C° 0.2 mm 1 mps 746 mmHg 97%
    22:00 +25°C° 0.2 mm 1 mps 746 mmHg 97%
    23:00 +25°C° 0.2 mm 1 mps 746 mmHg 98%
    Show more